This demonstration page uses our WeatherBlox Daily Observations layout. Learn more.

39.92423, -83.80882

Hourly Observations for August 26, 2018

Temp ( °F °C ) Dew Point ( °F °C ) Humidity (%) Winds ( mph kmh ) Pressure ( in mb ) Visibility ( mi km ) Precip ( " mm )
12:56 am 00:56 Cloudy 72 22.2 71 21.7 97 97 S 6 9 30.09 1019 10 16.0934 0 0
1:56 am 01:56 Mostly Cloudy 72 22.2 71 21.7 97 97 SSW 6 9 30.09 1019 10 16.0934 0 0
2:56 am 02:56 Mostly Cloudy 72 22.2 71 21.7 97 97 SSW 10 17 30.08 1019 10 16.0934 0 0
3:56 am 03:56 Mostly Clear 72 22.2 71 21.7 97 97 SSW 9 15 30.09 1019 10 16.0934 0 0
4:56 am 04:56 Mostly Cloudy 71 21.7 71 21.7 100 100 SW 9 15 30.09 1019 10 16.0934 0 0
5:56 am 05:56 Mostly Cloudy 71 21.7 71 21.7 100 100 SSW 8 13 30.08 1019 9 14.48406 0 0
6:56 am 06:56 Mostly Cloudy 72 22.2 71 21.7 97 97 SW 8 13 30.11 1020 9 14.48406 0 0
7:44 am 07:44 Cloudy 73 23 72 22 94 94 SW 12 19 30.09 1019 9 14.48406 0 0
7:56 am 07:56 Cloudy 74 23.3 72 22.2 94 94 WSW 6 9 30.13 1020 9 14.48406 0 0
8:56 am 08:56 Mostly Cloudy 76 24.4 73 22.8 91 91 WSW 10 17 30.13 1020 9 14.48406 0 0
9:56 am 09:56 Mostly Cloudy 79 26.1 74 23.3 85 85 SW 9 15 30.14 1021 9 14.48406 0 0
10:13 am 10:13 Mostly Cloudy with Nearby Thunderstorms 79 26 73 23 84 84 WSW 15 24 30.12 1020 9 14.48406 0 0
10:33 am 10:33 Mostly Cloudy 77 25 73 23 89 89 SW 10 17 30.12 1020 9 14.48406 0 0
10:56 am 10:56 Partly Cloudy 79 26.1 75 23.9 88 88 SW 7 11 30.14 1021 9 14.48406 0 0
11:56 am 11:56 Mostly Sunny 83 28.3 76 24.4 79 79 WSW 14 22 30.12 1020 9 14.48406 0 0
12:56 pm 12:56 Partly Cloudy 84 28.9 76 24.4 77 77 WSW 10 17 30.11 1020 10 16.0934 0 0
1:13 pm 13:13 Mostly Cloudy 84 29 77 25 79 79 SW 12 19 30.06 1018 9 14.48406 0 0
1:56 pm 13:56 Mostly Cloudy 85 29.4 77 25 77 77 W 12 19 30.11 1020 9 14.48406 0 0
2:56 pm 14:56 Sunny 88 31.1 77 25 70 70 W 10 17 30.09 1019 10 16.0934 0 0
3:56 pm 15:56 Mostly Sunny 89 31.7 76 24.4 65 65 W 10 17 30.08 1019 10 16.0934 0 0
4:56 pm 16:56 Sunny 89 31.7 76 24.4 65 65 WSW 10 17 30.08 1019 10 16.0934 0 0
5:56 pm 17:56 Partly Cloudy 88 31.1 76 24.4 68 68 W 9 15 30.07 1018 10 16.0934 0 0
6:56 pm 18:56 Mostly Sunny 86 30 75 23.9 70 70 W 6 9 30.07 1018 10 16.0934 0 0
7:56 pm 19:56 Sunny 82 27.8 76 24.4 82 82 SW 3 6 30.06 1018 10 16.0934 0 0
8:56 pm 20:56 Clear 80 26.7 76 24.4 87 87 SSW 6 9 30.08 1019 10 16.0934 0 0
9:56 pm 21:56 Clear 76 24.4 75 23.9 97 97 SSW 3 6 30.1 1019 8 12.87472 0 0
10:56 pm 22:56 Clear 76 24.4 75 23.9 97 97 SW 6 9 30.1 1019 8 12.87472 0 0
11:56 pm 23:56 Clear 75 23.9 74 23.3 96 96 SW 6 9 30.1 1019 7 11.26538 0 0

Powered by AerisWeather